St. Johns, AZ

6:49 AM MST on November 19, 2019 (GMT -0700)
Saint Johns Industrial

Weather History for KSJN - October, 2019

Change the Weather History Date:

Wednesday, October 23, 2019

  Actual Average (KLSB) Record (KLSB)
Temperature  
Mean Temperature 46 °F -  
Max Temperature 66 °F 73 °F 78 °F (2013)
Min Temperature 25 °F 42 °F 41 °F (2015)
Degree Days  
Heating Degree Days 20    
Moisture  
Dew Point 20 °F    
Average Humidity 32    
Maximum Humidity 57    
Minimum Humidity 10    
Precipitation  
Precipitation 0.00 in - - ()
Sea Level Pressure  
Sea Level Pressure 30.01 in    
Wind  
Wind Speed 5 mph (West)    
Max Wind Speed 10 mph    
Max Gust Speed -    
Visibility 10 miles    
Events      
Averages and records for this station are not official NWS values.
T = Trace of Precipitation, MM = Missing Value Source: NWS Daily Summary

Daily Weather History Graph

Daily Weather History Graph

Search for Another Location

Airport or City:

Astronomy

Oct. 23, 2019 Rise Set
Actual Time 6:29 AM MST 5:33 PM MST
Civil Twilight 6:04 AM MST 5:59 PM MST
Nautical Twilight 5:34 AM MST 6:28 PM MST
Astronomical Twilight 5:05 AM MST 6:57 PM MST
Moon 1:10 AM MST (10/23) 3:09 PM MST (10/23)
Length of Visible Light 11h 55m
Length of Day
11h 03m
Waning Crescent, 25% of the Moon is Illuminated
Oct 23
Waning Crescent
Oct 27
New
Nov 4
First Quarter
Nov 12
Full
Nov 19
Last Quarter

Hourly Weather History & Observations

Time (MST) Temp. Windchill Dew Point Humidity Pressure Visibility Wind Dir Wind Speed Gust Speed Precip Events Conditions
12:54 AM 43.0 °F 38.2 °F 21.0 °F 42% 30.04 in 10.0 mi South 8.1 mph - N/A   Clear
1:54 AM 41.0 °F 38.0 °F 19.9 °F 43% 30.05 in 10.0 mi SSE 4.6 mph - N/A   Clear
2:54 AM 41.0 °F 35.2 °F 19.9 °F 43% 30.01 in 10.0 mi South 9.2 mph - N/A   Clear
3:54 AM 37.9 °F - 19.9 °F 48% 30.02 in 10.0 mi Calm Calm - N/A   Clear
4:54 AM 34.0 °F 28.8 °F 19.0 °F 54% 30.04 in 10.0 mi SSW 5.8 mph - N/A   Clear
5:54 AM 34.0 °F 31.0 °F 19.0 °F 54% 30.08 in 10.0 mi South 3.5 mph - N/A   Clear
6:54 AM 30.9 °F - 17.1 °F 57% 30.11 in 10.0 mi Calm Calm - N/A   Clear
7:54 AM 41.0 °F - 19.9 °F 43% 30.09 in 10.0 mi Calm Calm - N/A   Clear
8:54 AM 50.0 °F - 21.0 °F 32% 30.08 in 10.0 mi Calm Calm - N/A   Clear
9:54 AM 57.0 °F - 21.9 °F 26% 30.04 in 10.0 mi Variable 3.5 mph - N/A   Clear
10:54 AM 62.1 °F - 21.9 °F 21% 30.01 in 10.0 mi NNW 4.6 mph - N/A   Clear
11:54 AM 64.9 °F - 21.9 °F 19% 29.98 in 10.0 mi NNW 5.8 mph - N/A   Clear
12:54 PM 66.9 °F - 21.9 °F 18% 29.95 in 10.0 mi NW 8.1 mph - N/A   Clear
1:54 PM 68.0 °F - 21.0 °F 17% 29.93 in 10.0 mi NW 9.2 mph - N/A   Clear
2:54 PM 68.0 °F - 21.0 °F 17% 29.92 in 10.0 mi WNW 10.4 mph - N/A   Clear
3:54 PM 66.9 °F - 21.0 °F 17% 29.92 in 10.0 mi NW 10.4 mph - N/A   Clear
4:54 PM 66.0 °F - 19.9 °F 17% 29.94 in 10.0 mi NW 10.4 mph - N/A   Clear
5:54 PM 59.0 °F - 19.9 °F 22% 29.96 in 10.0 mi NW 8.1 mph - N/A   Clear
6:54 PM 51.1 °F - 19.9 °F 29% 30.01 in 10.0 mi West 4.6 mph - N/A   Clear
7:54 PM 52.0 °F - 19.0 °F 27% 29.98 in 10.0 mi WSW 3.5 mph - N/A   Clear
8:54 PM 46.9 °F - 19.0 °F 33% 29.98 in 10.0 mi East 5.8 mph - N/A   Clear
9:54 PM 48.0 °F - 19.0 °F 32% 29.95 in 10.0 mi Calm Calm - N/A   Clear
10:54 PM 44.1 °F - 19.0 °F 37% 29.95 in 10.0 mi Calm Calm - N/A   Clear
11:54 PM 43.0 °F 39.5 °F 18.0 °F 37% 29.95 in 10.0 mi South 5.8 mph - N/A   Clear